This demonstration page uses our WeatherBlox Daily Observations layout. Learn more.

Left ArrowRight Arrow

Hourly Observations for September 18, 2020

Temp ( °F °C ) Dew Point ( °F °C ) Humidity (%) Winds ( mph kmh ) Pressure ( in mb ) Visibility ( mi km ) Precip ( " mm )
12:52 am 00:52 Partly Cloudy 54 12.2 47 8.3 77 77 NNW 5 7 30.25 1025 10 16 0.00 0.00
1:52 am 01:52 Partly Cloudy 56 13.3 42 5.6 60 60 NE 5 7 30.26 1025 10 16 0.00 0.00
2:52 am 02:52 Partly Cloudy 54 12.2 42 5.6 64 64 VRB 5 7 30.27 1025 10 16 0.00 0.00
3:52 am 03:52 Mostly Cloudy 53 11.7 41 5 64 64 Calm 30.29 1026 10 16 0.00 0.00
4:52 am 04:52 Partly Cloudy 52 11.1 41 5 66 66 N 3 6 30.30 1026 10 16 0.00 0.00
5:52 am 05:52 Partly Cloudy 49 9.4 42 5.6 77 77 NNW 5 7 30.31 1027 10 16 0.00 0.00
6:52 am 06:52 Partly Cloudy 50 10 41 5 71 71 VRB 3 6 30.32 1027 10 16 0.00 0.00
7:52 am 07:52 Partly Cloudy 49 9.4 43 6.1 80 80 NNW 6 9 30.35 1028 10 16 0.00 0.00
8:52 am 08:52 Partly Cloudy 53 11.7 43 6.1 69 69 N 3 6 30.37 1028 10 16 0.00 0.00
9:52 am 09:52 Mostly Cloudy 57 13.9 40 4.4 53 53 E 7 11 30.39 1029 10 16 0.00 0.00
10:52 am 10:52 Partly Cloudy 61 16.1 41 5 48 48 ESE 7 11 30.38 1029 10 16 0.00 0.00
11:52 am 11:52 Partly Cloudy 65 18.3 41 5 42 42 SE 7 11 30.36 1028 10 16 0.00 0.00
12:52 pm 12:52 Partly Cloudy 68 20 41 5 38 38 SE 5 7 30.33 1027 10 16 0.00 0.00
1:52 pm 13:52 Partly Cloudy 70 21.1 40 4.4 34 34 Calm 30.31 1026 10 16 0.00 0.00
2:52 pm 14:52 Partly Cloudy 72 22.2 40 4.4 31 31 E 8 13 30.28 1025 10 16 0.00 0.00
3:52 pm 15:52 Partly Cloudy 72 22.2 39 3.9 30 30 Calm 30.25 1025 10 16 0.00 0.00
4:52 pm 16:52 Mostly Cloudy 73 22.8 38 3.3 28 28 VRB 6 9 30.23 1024 10 16 0.00 0.00
5:52 pm 17:52 Partly Cloudy 72 22.2 38 3.3 29 29 E 7 11 30.23 1024 10 16 0.00 0.00
6:52 pm 18:52 Partly Cloudy 68 20 46 7.8 45 45 E 6 9 30.23 1024 10 16 0.00 0.00
7:52 pm 19:52 Partly Cloudy 67 19.4 41 5 39 39 ESE 7 11 30.23 1024 10 16 0.00 0.00
8:52 pm 20:52 Partly Cloudy 63 17.2 41 5 45 45 ESE 8 13 30.25 1024 10 16 0.00 0.00
9:52 pm 21:52 Mostly Cloudy 62 16.7 42 5.6 48 48 SE 8 13 30.26 1025 10 16 0.00 0.00
10:52 pm 22:52 Partly Cloudy 59 15 43 6.1 56 56 SSE 6 9 30.27 1025 10 16 0.00 0.00
11:52 pm 23:52 Mostly Cloudy 60 15.6 45 7.2 58 58 SSE 7 11 30.26 1025 10 16 0.00 0.00

Powered by AerisWeather